TimeCDT,TemperatureF,Dew PointF,Humidity,Sea Level PressureIn,VisibilityMPH,Wind Direction,Wind SpeedMPH,Gust SpeedMPH,PrecipitationIn,Events,Conditions,WindDirDegrees,DateUTC
12:03 AM,60.8,59.0,94,30.22,0.8,East,5.8,-,N/A,,Mist,90,2012-10-13 05:03:00
12:31 AM,60.8,59.0,94,30.22,0.5,East,5.8,-,N/A,Fog,Fog,100,2012-10-13 05:31:00
12:53 AM,60.1,59.0,96,30.21,0.5,East,4.6,-,N/A,Fog,Fog,80,2012-10-13 05:53:00
1:09 AM,60.8,59.0,94,30.21,0.2,East,4.6,-,N/A,Fog,Fog,90,2012-10-13 06:09:00
1:53 AM,60.1,59.0,96,30.20,0.2,East,4.6,-,N/A,Fog,Fog,80,2012-10-13 06:53:00
2:53 AM,61.0,59.0,93,30.18,0.2,East,3.5,-,N/A,Fog,Fog,90,2012-10-13 07:53:00
3:53 AM,61.0,60.1,97,30.16,0.2,ESE,6.9,-,N/A,Fog,Fog,110,2012-10-13 08:53:00
4:39 AM,60.8,60.8,100,30.15,0.2,ESE,3.5,-,N/A,Fog,Fog,110,2012-10-13 09:39:00
4:53 AM,61.0,60.1,97,30.15,0.2,ESE,3.5,-,N/A,Fog,Fog,120,2012-10-13 09:53:00
5:04 AM,60.8,60.8,100,30.16,0.5,ESE,5.8,-,N/A,Fog,Fog,110,2012-10-13 10:04:00
5:29 AM,60.8,60.8,100,30.16,0.2,ESE,4.6,-,N/A,Fog,Fog,110,2012-10-13 10:29:00
5:53 AM,61.0,60.1,97,30.16,0.2,ESE,3.5,-,N/A,Fog,Fog,110,2012-10-13 10:53:00
6:53 AM,62.1,61.0,96,30.17,0.2,Calm,Calm,-,N/A,Fog,Fog,0,2012-10-13 11:53:00
7:53 AM,62.1,61.0,96,30.17,0.2,Calm,Calm,-,N/A,Fog,Fog,0,2012-10-13 12:53:00
8:53 AM,64.0,63.0,96,30.16,0.2,South,6.9,-,N/A,Fog,Fog,170,2012-10-13 13:53:00
9:13 AM,64.4,64.4,100,30.17,0.2,SSE,6.9,-,N/A,Fog,Fog,160,2012-10-13 14:13:00
9:36 AM,64.4,64.4,100,30.16,0.5,South,6.9,-,N/A,Fog,Fog,190,2012-10-13 14:36:00
9:45 AM,66.2,64.4,94,30.17,1.0,South,10.4,-,N/A,,Overcast,190,2012-10-13 14:45:00
9:53 AM,66.0,64.9,96,30.16,2.5,South,10.4,-,N/A,,Overcast,190,2012-10-13 14:53:00
10:01 AM,66.2,64.4,94,30.16,3.0,South,9.2,-,N/A,,Overcast,180,2012-10-13 15:01:00
10:53 AM,71.1,66.0,84,30.13,7.0,South,8.1,-,N/A,,Scattered Clouds,180,2012-10-13 15:53:00
11:53 AM,77.0,64.9,66,30.10,10.0,SW,18.4,26.5,N/A,,Partly Cloudy,220,2012-10-13 16:53:00
12:53 PM,79.0,64.0,60,30.08,10.0,SSW,18.4,25.3,N/A,,Scattered Clouds,210,2012-10-13 17:53:00
1:53 PM,81.0,64.9,58,30.04,10.0,SSW,15.0,-,N/A,,Mostly Cloudy,210,2012-10-13 18:53:00
2:53 PM,82.0,63.0,52,30.01,10.0,South,16.1,26.5,N/A,,Mostly Cloudy,190,2012-10-13 19:53:00
3:53 PM,81.0,63.0,54,30.00,10.0,South,15.0,24.2,N/A,,Mostly Cloudy,190,2012-10-13 20:53:00
4:53 PM,81.0,63.0,54,29.99,10.0,South,15.0,-,N/A,,Partly Cloudy,170,2012-10-13 21:53:00
5:53 PM,77.0,62.1,60,29.97,10.0,South,10.4,-,N/A,,Clear,190,2012-10-13 22:53:00
7:53 PM,72.0,62.1,71,29.97,10.0,South,5.8,-,N/A,,Unknown,170,2012-10-14 00:53:00
8:53 PM,71.1,62.1,73,29.97,10.0,South,6.9,-,N/A,,Partly Cloudy,170,2012-10-14 01:53:00
9:53 PM,71.1,61.0,70,29.96,10.0,South,9.2,-,N/A,,Clear,170,2012-10-14 02:53:00
10:53 PM,70.0,61.0,73,29.93,10.0,South,11.5,-,N/A,,Clear,180,2012-10-14 03:53:00
11:53 PM,71.6,62.6,73,29.92,10.0,South,12.7,-,N/A,,Clear,190,2012-10-14 04:53:00